Bismarck, ND

5:36 PM CDT on April 25, 2017 (GMT -0500)
Bismarck Municipal

Weather History for KBIS - March, 2013

Change the Weather History Date:

Wednesday, March 13, 2013

  Actual Average Record
Temperature  
Mean Temperature 28 °F 28 °F  
Max Temperature 49 °F 39 °F 72 °F (2016)
Min Temperature 7 °F 18 °F -25 °F (1951)
Degree Days  
Heating Degree Days 37 37  
Month to date heating degree days 534 510  
Since 1 July heating degree days 6843 6941  
Cooling Degree Days 0 0  
Month to date cooling degree days 0 0  
Year to date cooling degree days 0 0  
Moisture  
Dew Point 16 °F    
Average Humidity 65    
Maximum Humidity 91    
Minimum Humidity 39    
Precipitation  
Precipitation 0.00 in 0.03 in 0.41 in (1997)
Month to date precipitation 0.51 0.33  
Year to date precipitation 1.10 1.27  
Snow  
Snow 0.00 in 0.30 in 6.70 in (1997)
Month to date snowfall 2.2 4.1  
Since 1 July snowfall 30.8 41.6  
Snow Depth 1.00 in    
Sea Level Pressure  
Sea Level Pressure 30.21 in    
Wind  
Wind Speed 7 mph (SE)    
Max Wind Speed 16 mph    
Max Gust Speed 20 mph    
Visibility 10 miles    
Events      
T = Trace of Precipitation, MM = Missing Value Source: NWS Daily Summary

Daily Weather History Graph

Daily Weather History Graph

Search for Another Location

Airport or City:

Trip Planner

Search our weather history database for the weather conditions in past years. The results will help you decide how hot, cold, wet, or windy it might be!

Date:

Astronomy

Mar. 13, 2013 Rise Set
Actual Time 7:59 AM CDT 7:46 PM CDT
Civil Twilight 7:29 AM CDT 8:16 PM CDT
Nautical Twilight 6:53 AM CDT 8:51 PM CDT
Astronomical Twilight 6:18 AM CDT 9:27 PM CDT
Moon 8:30 AM CDT (3/13) 10:16 PM CDT (3/13)
Length of Visible Light 12h 47m
Length of Day
11h 47m
Waxing Crescent, 4% of the Moon is Illuminated
Mar 13
Waxing Crescent
Mar 19
First Quarter
Mar 27
Full
Apr 2
Last Quarter
Apr 10
New

Hourly Weather History & Observations

Time (CDT) Temp. Windchill Dew Point Humidity Pressure Visibility Wind Dir Wind Speed Gust Speed Precip Events Conditions
12:52 AM 10.9 °F 2.9 °F 7.0 °F 84% 30.40 in 10.0 mi ENE 4.6 mph - N/A   Clear
1:52 AM 9.0 °F - 6.1 °F 88% 30.39 in 10.0 mi Calm Calm - N/A   Clear
2:52 AM 8.1 °F -4.3 °F 3.9 °F 83% 30.38 in 10.0 mi ENE 8.1 mph - N/A   Clear
3:52 AM 8.1 °F -0.5 °F 3.9 °F 83% 30.37 in 10.0 mi ENE 4.6 mph - N/A   Clear
4:52 AM 9.0 °F - 5.0 °F 84% 30.37 in 10.0 mi Calm Calm - N/A   Partly Cloudy
5:52 AM 8.1 °F -2.0 °F 3.9 °F 83% 30.36 in 10.0 mi ENE 5.8 mph - N/A   Clear
6:52 AM 9.0 °F 0.6 °F 6.1 °F 88% 30.34 in 10.0 mi ESE 4.6 mph - N/A   Partly Cloudy
7:52 AM 12.9 °F 1.6 °F 9.0 °F 84% 30.31 in 10.0 mi ESE 8.1 mph - N/A   Scattered Clouds
8:52 AM 15.1 °F 2.5 °F 10.9 °F 84% 30.32 in 10.0 mi SSE 10.4 mph - N/A   Overcast
9:52 AM 18.0 °F 6.1 °F 14.0 °F 84% 30.30 in 10.0 mi SSE 10.4 mph - N/A   Overcast
10:52 AM 19.9 °F 8.6 °F 15.1 °F 81% 30.30 in 10.0 mi SE 10.4 mph - N/A   Overcast
11:52 AM 26.1 °F 15.6 °F 17.1 °F 69% 30.26 in 10.0 mi SSE 11.5 mph - N/A   Mostly Cloudy
12:52 PM 33.1 °F 25.5 °F 19.0 °F 56% 30.22 in 10.0 mi South 9.2 mph - N/A   Clear
1:52 PM 37.9 °F 31.5 °F 19.0 °F 47% 30.17 in 10.0 mi South 9.2 mph - N/A   Clear
2:52 PM 41.0 °F 34.3 °F 21.0 °F 45% 30.14 in 10.0 mi South 11.5 mph - N/A   Clear
3:52 PM 44.1 °F 38.1 °F 21.0 °F 40% 30.10 in 10.0 mi South 11.5 mph - N/A   Clear
4:52 PM 48.0 °F - 24.1 °F 39% 30.07 in 10.0 mi SSE 11.5 mph - N/A   Clear
5:52 PM 48.9 °F - 26.1 °F 41% 30.05 in 10.0 mi SSE 9.2 mph - N/A   Overcast
6:52 PM 44.1 °F 40.1 °F 28.0 °F 53% 30.03 in 10.0 mi SSE 6.9 mph - N/A   Scattered Clouds
7:52 PM 43.0 °F 36.4 °F 26.1 °F 51% 30.01 in 10.0 mi South 12.7 mph - N/A   Overcast
8:52 PM 37.9 °F 30.9 °F 27.0 °F 65% 30.01 in 10.0 mi SSE 10.4 mph - N/A   Clear
9:52 PM 34.0 °F 29.8 °F 27.0 °F 75% 30.01 in 10.0 mi SE 4.6 mph - N/A   Clear
10:52 PM 35.1 °F - 26.1 °F 70% 30.01 in 10.0 mi Calm Calm - N/A   Clear
11:52 PM 30.9 °F 27.5 °F 26.1 °F 82% 30.01 in 10.0 mi SSE 3.5 mph - N/A   Clear